Flag for Brazil Weather past 2 weeks in Belém, Para, Brazil

Now
75 °F

Clear.


Feels Like: 74 °F
Forecast: 76 / 94 °F
Wind: 5 mph from East

Location: Belem Aeroporto

Current Time: Aug 20, 2014 at 4:23:37 AM

Latest Report: Aug 20, 2014 at 4:00 AM


Visibility: 10 mi

Pressure: 29.86 "Hg

Humidity: 94%

Dew point: 73 °F

Location of BelémLocation

Historic Weather in Belém — Graph

°F

Belém temperature yesterday

Maximum temperature yesterday: 93 °F (at 2:00 PM)
Minimum temperature yesterday: 75 °F (at 5:00 AM)
Average temperature yesterday: 82 °F

Past Weeks' High & Low Weather Summary

 TemperatureHumidityPressure
High93 °F (Aug 19, 2:00 PM)100% (Aug 9, 5:00 AM)30.01 "Hg (Aug 9, 5:00 AM)
Low73 °F (Aug 6, 6:00 AM)39% (Aug 19, 2:00 PM)29.80 "Hg (Aug 17, 4:00 PM)
Average80 °F79%29.92 "Hg
* Reported Aug 5 3:00 AM — Aug 20 3:00 AM, Belém, Weather by CustomWeather, © 2014

Note: Actual official high and low records may vary slightly from our data, if they occured in-between our weather recording intervals... More about our weather records

Advertising

Belém weather history for previous 24 hours

 ConditionsComfort  
Time TempWeatherWind HumidityBarometerVisibility
3:00 AM
Aug 20
77 °FClear.7 mph89%29.86 "Hg10 mi
2:00 AM77 °FClear.9 mph89%29.89 "Hg10 mi
1:00 AM77 °FClear.9 mph89%29.92 "Hg10 mi
12:00 AM77 °FClear.10 mph89%29.92 "Hg10 mi
11:00 PM
Aug 19
77 °FClear.6 mph89%29.92 "Hg10 mi
10:00 PM79 °FClear.9 mph84%29.92 "Hg10 mi
9:00 PM81 °FClear.8 mph74%29.89 "Hg10 mi
8:00 PM82 °FPassing clouds.7 mph79%29.86 "HgN/A
7:00 PM84 °FPartly cloudy.8 mph70%29.86 "HgN/A
6:00 PM84 °FPassing clouds.7 mph79%29.83 "HgN/A
5:00 PM86 °FPassing clouds.9 mph75%29.80 "HgN/A
4:00 PM86 °FPassing clouds.7 mph75%29.80 "HgN/A
3:00 PM88 °FScattered clouds.8 mph66%29.83 "HgN/A
2:00 PM93 °FScattered clouds.6 mph39%29.83 "HgN/A
1:00 PM91 °FSunny.6 mph41%29.86 "Hg10 mi
12:00 PM90 °FSunny.6 mph46%29.89 "Hg10 mi
11:00 AM86 °FSunny.7 mph62%29.89 "Hg10 mi
10:00 AM86 °FSunny.7 mph55%29.92 "Hg10 mi
9:00 AM82 °FSunny.3 mph70%29.92 "Hg10 mi
8:00 AM79 °FSunny.2 mph79%29.89 "Hg10 mi
7:00 AM75 °FSunny.6 mph94%29.86 "Hg10 mi
6:00 AM75 °FClear.2 mph89%29.86 "Hg10 mi
5:00 AM75 °FClear.2 mph89%29.86 "Hg10 mi
4:00 AM77 °FClear.7 mph89%29.83 "Hg10 mi
Weather by CustomWeather, © 2014

See weather overviewHow to use our weather pages